Starlink 6118

operational
NORAD ID: 57106 Int'l Des: 2023-090 Owner: SPXS Country: US Constellation: starlink
LEOCIRCULAR

Starlink 6118について

説明を読み込み中...

リアルタイム位置

3D地球を読み込み中...

次回通過

高度履歴

Altitude vs Time

uPlot chart will show altitude changes over time

軌道要素

1 57106U 23090F 25351.07677222 .00000434 00000-0 47178-4 0 9994
2 57106 43.0054 3.7669 0001442 273.3339 86.7339 15.02538749137987
Epoch: Dec 17, 2025 • Age: 13 hours

現在のステータス

高度 568.1 km
速度 7.58 km/s
衛星直下点 -34.82°S, 11.26°E
打ち上げ日 Jun 23, 2023
運用期間 2.4 years
タイプ internet

技術仕様

分類 Payload
質量 305.00 kg
乾燥質量 290.00 kg
総質量 305.00 kg
長さ 0.20 m
直径 2.80 m
スパン 9.00 m
形状 Box + pan
製造者 SPXS
バスタイプ Starlink
フェーズステータス In Orbit
所有者/国 SPXS/US

大規模コンステレーション

Loading constellations...